WAT2950 EGSS-LERS

Flight info

Callsign WAT2950
Flight time N/A
Altitude 33000
Route NUGBO M183 SILVA Q41 COWLY UT71 VAPID UN859 SOPIL DCT BALAN DCT EVPOK DCT NARAK DCT GAI DCT LOMRA DCT ROCAN DCT PUMAL/N0423F230 N31 BERGA
Aircraft B738/M-SDE2E3FGHIRWXY/LB1

Departure

Time N/A
Airport London Stansted Airport (EGSS)

Arrival

Time 2026-05-05 20:50
Airport Reus Airport (LERS)
Time Latitude Longitude Altitude Speed Heading
2026-05-05 19:15 50.21850 -0.11696 32923 ft 453 kts 147°
2026-05-05 19:15 50.19180 -0.09055 32919 ft 452 kts 147°
2026-05-05 19:15 50.13872 -0.03815 32925 ft 451 kts 147°
2026-05-05 19:16 50.08334 0.00703 32920 ft 450 kts 160°
2026-05-05 19:16 50.02323 0.03146 32925 ft 450 kts 165°
2026-05-05 19:17 49.96239 0.05434 32922 ft 449 kts 165°
2026-05-05 19:17 49.90173 0.07776 32907 ft 449 kts 165°
2026-05-05 19:18 49.84112 0.10145 32903 ft 449 kts 164°
2026-05-05 19:18 49.78093 0.12494 32900 ft 449 kts 164°
2026-05-05 19:19 49.72023 0.14855 32910 ft 450 kts 164°
2026-05-05 19:19 49.65949 0.17227 32910 ft 450 kts 164°
2026-05-05 19:20 49.59884 0.19688 32912 ft 451 kts 163°
2026-05-05 19:20 49.53808 0.22164 32910 ft 452 kts 163°
2026-05-05 19:21 49.47766 0.24607 32912 ft 453 kts 163°
2026-05-05 19:21 49.41666 0.27061 32886 ft 453 kts 163°
2026-05-05 19:22 49.35560 0.29513 32893 ft 454 kts 163°
2026-05-05 19:22 49.29447 0.31970 32884 ft 454 kts 163°
2026-05-05 19:23 49.23381 0.34515 32887 ft 455 kts 162°
2026-05-05 19:23 49.17288 0.37096 32880 ft 455 kts 162°
2026-05-05 19:24 49.11185 0.39662 32882 ft 455 kts 162°
2026-05-05 19:24 49.05085 0.42212 32879 ft 455 kts 162°
2026-05-05 19:25 48.98978 0.44757 32879 ft 455 kts 162°
2026-05-05 19:25 48.92921 0.47275 32881 ft 455 kts 162°
2026-05-05 19:26 48.86818 0.49806 32878 ft 455 kts 162°
2026-05-05 19:26 48.80713 0.52333 32880 ft 454 kts 162°
2026-05-05 19:27 48.74598 0.54797 32882 ft 455 kts 163°
2026-05-05 19:27 48.68464 0.57175 32879 ft 456 kts 163°
2026-05-05 19:28 48.62363 0.59543 32876 ft 456 kts 163°
2026-05-05 19:28 48.56212 0.61940 32878 ft 457 kts 163°
2026-05-05 19:29 48.50055 0.64346 32876 ft 457 kts 163°
2026-05-05 19:29 48.43910 0.66848 32872 ft 458 kts 162°
2026-05-05 19:30 48.37758 0.69361 32867 ft 458 kts 163°
2026-05-05 19:30 48.31640 0.71841 32868 ft 459 kts 163°
2026-05-05 19:31 48.25475 0.74328 32866 ft 459 kts 163°
2026-05-05 19:31 48.19294 0.76781 32864 ft 460 kts 163°
2026-05-05 19:32 48.13097 0.79211 32870 ft 460 kts 163°
2026-05-05 19:32 48.06938 0.81625 32864 ft 461 kts 163°
2026-05-05 19:33 48.00737 0.84054 32863 ft 461 kts 163°
2026-05-05 19:33 47.94536 0.86477 32866 ft 461 kts 163°
2026-05-05 19:34 47.88327 0.88899 32864 ft 461 kts 164°
2026-05-05 19:35 47.79012 0.92516 32865 ft 461 kts 164°
2026-05-05 19:35 47.72841 0.94900 32868 ft 462 kts 164°
2026-05-05 19:36 47.66621 0.97299 32868 ft 462 kts 164°
2026-05-05 19:36 47.60392 0.99697 32874 ft 463 kts 164°
2026-05-05 19:37 47.54152 1.02093 32875 ft 463 kts 165°
2026-05-05 19:37 47.47951 1.04469 32876 ft 464 kts 165°
2026-05-05 19:38 47.41644 1.06421 32867 ft 465 kts 175°
2026-05-05 19:38 47.35175 1.06377 32873 ft 465 kts 181°
2026-05-05 19:39 47.28709 1.06115 32874 ft 464 kts 180°
2026-05-05 19:39 47.22300 1.05931 32872 ft 464 kts 180°
2026-05-05 19:40 47.15853 1.05789 32869 ft 463 kts 180°
2026-05-05 19:40 47.09417 1.05651 32873 ft 462 kts 180°
2026-05-05 19:41 47.02993 1.05509 32870 ft 462 kts 180°
2026-05-05 19:41 46.96572 1.05278 32876 ft 461 kts 181°
2026-05-05 19:42 46.90197 1.04977 32878 ft 461 kts 181°
2026-05-05 19:42 46.83789 1.04684 32879 ft 461 kts 181°
2026-05-05 19:43 46.77375 1.04405 32876 ft 461 kts 181°
2026-05-05 19:43 46.70972 1.04130 32880 ft 460 kts 181°
2026-05-05 19:44 46.64569 1.03856 32890 ft 460 kts 181°
2026-05-05 19:44 46.58212 1.03586 32877 ft 460 kts 181°
2026-05-05 19:45 46.51828 1.03459 32882 ft 459 kts 176°
2026-05-05 19:45 46.45567 1.05155 32894 ft 458 kts 167°
2026-05-05 19:46 46.39378 1.07321 32893 ft 457 kts 167°
2026-05-05 19:46 46.33231 1.09431 32895 ft 457 kts 167°
2026-05-05 19:47 46.27045 1.11504 32901 ft 456 kts 167°
2026-05-05 19:47 46.20862 1.13556 32905 ft 455 kts 167°
2026-05-05 19:48 46.14688 1.15600 32913 ft 455 kts 168°
2026-05-05 19:48 46.08564 1.17624 32907 ft 454 kts 168°
2026-05-05 19:49 46.02406 1.19655 32913 ft 454 kts 168°
2026-05-05 19:49 45.96251 1.21681 32917 ft 453 kts 168°
2026-05-05 19:50 45.90101 1.23700 32912 ft 453 kts 168°
2026-05-05 19:50 45.83996 1.25701 32913 ft 453 kts 168°
2026-05-05 19:51 45.77844 1.27712 32912 ft 453 kts 168°
2026-05-05 19:51 45.71695 1.29717 32913 ft 453 kts 168°
2026-05-05 19:52 45.65547 1.31718 32917 ft 453 kts 168°
2026-05-05 19:52 45.59437 1.33703 32924 ft 453 kts 168°
2026-05-05 19:53 45.53279 1.35698 32928 ft 453 kts 168°
2026-05-05 19:53 45.47125 1.37688 32932 ft 453 kts 168°
2026-05-05 19:54 45.40978 1.39670 32930 ft 453 kts 168°
2026-05-05 19:54 45.34829 1.41649 32935 ft 453 kts 169°
2026-05-05 19:55 45.29309 1.43422 32937 ft 453 kts 169°
2026-05-05 19:55 45.23171 1.45390 32930 ft 452 kts 169°
2026-05-05 19:56 45.17034 1.47354 32938 ft 452 kts 169°
2026-05-05 19:56 45.10899 1.49312 32935 ft 452 kts 169°
2026-05-05 19:57 45.04762 1.51267 32942 ft 451 kts 169°
2026-05-05 19:57 44.98678 1.53201 32941 ft 451 kts 169°
2026-05-05 19:58 44.92551 1.55144 32937 ft 451 kts 169°
2026-05-05 19:58 44.86427 1.57082 32936 ft 451 kts 169°
2026-05-05 19:59 44.80309 1.59014 32945 ft 451 kts 169°
2026-05-05 19:59 44.74229 1.60929 32938 ft 451 kts 169°
2026-05-05 20:00 44.69624 1.62378 32938 ft 451 kts 169°
2026-05-05 20:00 44.63509 1.64297 32943 ft 450 kts 170°
2026-05-05 20:01 44.57395 1.66212 32942 ft 450 kts 170°
2026-05-05 20:01 44.51327 1.68109 32948 ft 450 kts 170°
2026-05-05 20:02 44.45215 1.70015 32953 ft 450 kts 170°
2026-05-05 20:02 44.39102 1.71918 32950 ft 450 kts 170°
2026-05-05 20:03 44.32995 1.73815 32954 ft 449 kts 170°
2026-05-05 20:03 44.26921 1.75563 32954 ft 448 kts 173°
2026-05-05 20:04 44.20770 1.76898 32963 ft 447 kts 174°
2026-05-05 20:04 44.14616 1.78193 32960 ft 447 kts 174°
2026-05-05 20:05 44.08466 1.79531 32963 ft 447 kts 174°
2026-05-05 20:05 44.02363 1.80874 32966 ft 447 kts 174°
2026-05-05 20:06 43.96213 1.82221 32971 ft 447 kts 174°
2026-05-05 20:06 43.90046 1.83039 32977 ft 445 kts 179°
2026-05-05 20:07 43.83873 1.83576 32976 ft 444 kts 179°
2026-05-05 20:07 43.77743 1.84126 32981 ft 444 kts 179°
2026-05-05 20:08 43.71574 1.84714 32999 ft 445 kts 179°
2026-05-05 20:08 43.65393 1.85314 32985 ft 445 kts 179°
2026-05-05 20:09 43.59218 1.85912 32992 ft 445 kts 179°
2026-05-05 20:09 43.53090 1.86504 33006 ft 445 kts 179°
2026-05-05 20:10 43.46910 1.87099 32984 ft 445 kts 179°
2026-05-05 20:10 43.40732 1.87692 32984 ft 445 kts 180°
2026-05-05 20:11 43.34558 1.88284 32999 ft 445 kts 180°
2026-05-05 20:11 43.28421 1.88874 32987 ft 445 kts 180°
2026-05-05 20:12 43.22235 1.89469 32992 ft 446 kts 180°
2026-05-05 20:12 43.16041 1.90063 32987 ft 446 kts 180°
2026-05-05 20:13 43.09933 1.90654 32968 ft 425 kts 180°
2026-05-05 20:13 43.07041 1.90938 32973 ft 408 kts 180°
2026-05-05 20:13 43.04278 1.91205 32988 ft 402 kts 181°
2026-05-05 20:14 42.98709 1.91728 32603 ft 398 kts 181°
2026-05-05 20:14 42.95968 1.91988 32207 ft 393 kts 181°
2026-05-05 20:14 42.93254 1.92246 31850 ft 388 kts 181°
2026-05-05 20:14 42.90571 1.92501 31450 ft 385 kts 181°
2026-05-05 20:15 42.87911 1.92753 31060 ft 382 kts 181°
2026-05-05 20:15 42.85272 1.93003 30669 ft 379 kts 181°
2026-05-05 20:15 42.82655 1.93250 30287 ft 376 kts 181°
2026-05-05 20:15 42.80094 1.93493 29891 ft 372 kts 181°
2026-05-05 20:16 42.77520 1.93737 29448 ft 369 kts 181°
2026-05-05 20:16 42.74974 1.93978 29067 ft 364 kts 181°
2026-05-05 20:16 42.72462 1.94215 28662 ft 360 kts 181°
2026-05-05 20:16 42.69978 1.94449 28272 ft 357 kts 181°
2026-05-05 20:17 42.67514 1.94686 27900 ft 353 kts 180°
2026-05-05 20:17 42.65085 1.95061 27551 ft 349 kts 178°
2026-05-05 20:17 42.62725 1.95532 27160 ft 347 kts 176°
2026-05-05 20:17 42.60345 1.96034 26795 ft 345 kts 176°
2026-05-05 20:18 42.57985 1.96531 26393 ft 342 kts 176°
2026-05-05 20:18 42.55642 1.97015 26056 ft 339 kts 176°
2026-05-05 20:18 42.53317 1.97489 25691 ft 337 kts 176°
2026-05-05 20:18 42.51007 1.97953 25330 ft 335 kts 176°
2026-05-05 20:19 42.48704 1.98414 24966 ft 334 kts 176°
2026-05-05 20:19 42.46412 1.98870 24602 ft 332 kts 176°
2026-05-05 20:19 42.44164 1.99317 24252 ft 330 kts 176°
2026-05-05 20:19 42.41896 1.99768 23907 ft 328 kts 176°
2026-05-05 20:20 42.39642 2.00216 23539 ft 327 kts 176°
2026-05-05 20:20 42.37399 2.00661 23150 ft 325 kts 176°
2026-05-05 20:20 42.35164 2.01037 22763 ft 321 kts 178°
2026-05-05 20:20 42.32950 2.01312 22399 ft 319 kts 179°
2026-05-05 20:21 42.30750 2.01564 22038 ft 316 kts 179°
2026-05-05 20:21 42.28573 2.01816 21720 ft 313 kts 179°
2026-05-05 20:21 42.26437 2.02069 21362 ft 312 kts 179°
2026-05-05 20:21 42.24283 2.02330 21009 ft 310 kts 179°
2026-05-05 20:22 42.22142 2.02593 20664 ft 309 kts 179°
2026-05-05 20:22 42.20001 2.02853 20330 ft 309 kts 179°
2026-05-05 20:22 42.17883 2.02663 19971 ft 306 kts 198°
2026-05-05 20:22 42.15923 2.01511 19668 ft 312 kts 216°
2026-05-05 20:23 42.14242 1.99624 19340 ft 318 kts 223°
2026-05-05 20:23 42.12623 1.97572 18978 ft 320 kts 224°
2026-05-05 20:23 42.11022 1.95500 18628 ft 320 kts 224°
2026-05-05 20:23 42.09435 1.93453 18275 ft 320 kts 224°
2026-05-05 20:24 42.07831 1.91399 17885 ft 318 kts 224°
2026-05-05 20:24 42.06230 1.89365 17502 ft 315 kts 224°
2026-05-05 20:24 42.04641 1.87355 17157 ft 312 kts 224°
2026-05-05 20:24 42.03066 1.85369 16823 ft 308 kts 224°
2026-05-05 20:25 42.01505 1.83403 16483 ft 306 kts 224°
2026-05-05 20:25 41.99955 1.81454 16153 ft 304 kts 224°
2026-05-05 20:25 41.98417 1.79522 15819 ft 302 kts 224°
2026-05-05 20:25 41.96903 1.77623 15502 ft 301 kts 224°
2026-05-05 20:26 41.95335 1.75765 15173 ft 300 kts 219°
2026-05-05 20:26 41.93652 1.74103 14851 ft 300 kts 217°
2026-05-05 20:26 41.91937 1.72503 14532 ft 300 kts 216°
2026-05-05 20:26 41.90219 1.70909 14209 ft 300 kts 217°
2026-05-05 20:27 41.88509 1.69311 13883 ft 300 kts 217°
2026-05-05 20:27 41.86801 1.67704 13543 ft 299 kts 217°
2026-05-05 20:27 41.85121 1.66116 13188 ft 299 kts 217°
2026-05-05 20:27 41.83427 1.64509 12846 ft 298 kts 217°
2026-05-05 20:28 41.81739 1.62906 12516 ft 297 kts 217°
2026-05-05 20:28 41.80058 1.61306 12195 ft 296 kts 217°
2026-05-05 20:28 41.78381 1.59711 11863 ft 295 kts 217°
2026-05-05 20:28 41.76708 1.58123 11561 ft 294 kts 218°
2026-05-05 20:29 41.75037 1.56537 11230 ft 294 kts 217°
2026-05-05 20:29 41.73316 1.55063 10935 ft 295 kts 206°
2026-05-05 20:29 41.71353 1.54352 10824 ft 290 kts 194°
2026-05-05 20:29 41.69398 1.53867 10698 ft 290 kts 193°
2026-05-05 20:30 41.67393 1.53384 10590 ft 295 kts 193°
2026-05-05 20:30 41.65358 1.52887 10508 ft 299 kts 193°
2026-05-05 20:30 41.63312 1.52376 10393 ft 298 kts 194°
2026-05-05 20:30 41.61277 1.51863 10264 ft 296 kts 194°
2026-05-05 20:31 41.59277 1.51356 10138 ft 288 kts 194°
2026-05-05 20:31 41.57337 1.50863 10012 ft 280 kts 195°
2026-05-05 20:31 41.55598 1.49910 9888 ft 265 kts 220°
2026-05-05 20:31 41.54393 1.48172 9803 ft 256 kts 240°
2026-05-05 20:32 41.53691 1.46013 9707 ft 254 kts 253°
2026-05-05 20:32 41.53168 1.43731 9611 ft 260 kts 255°
2026-05-05 20:32 41.52657 1.41399 9499 ft 262 kts 255°
2026-05-05 20:32 41.52147 1.39066 9373 ft 261 kts 255°
2026-05-05 20:33 41.51851 1.37723 9316 ft 260 kts 255°
2026-05-05 20:33 41.51369 1.35542 9203 ft 258 kts 255°
2026-05-05 20:33 41.50860 1.33255 9099 ft 256 kts 255°
2026-05-05 20:33 41.50359 1.31013 8998 ft 255 kts 255°
2026-05-05 20:34 41.49850 1.28750 8892 ft 254 kts 254°
2026-05-05 20:34 41.49344 1.26500 8795 ft 252 kts 255°
2026-05-05 20:34 41.48836 1.24249 8695 ft 256 kts 255°
2026-05-05 20:34 41.48318 1.21959 8594 ft 259 kts 255°
2026-05-05 20:35 41.47799 1.19668 8474 ft 258 kts 255°
2026-05-05 20:35 41.47280 1.17385 8367 ft 257 kts 255°
2026-05-05 20:35 41.46770 1.15141 8263 ft 256 kts 255°
2026-05-05 20:35 41.46254 1.12872 8146 ft 255 kts 255°
2026-05-05 20:36 41.45740 1.10618 8061 ft 254 kts 255°
2026-05-05 20:36 41.45227 1.08366 7946 ft 254 kts 255°
2026-05-05 20:36 41.44715 1.06123 7841 ft 253 kts 255°
2026-05-05 20:36 41.44201 1.03875 7747 ft 253 kts 255°
2026-05-05 20:37 41.43686 1.01626 7633 ft 254 kts 255°
2026-05-05 20:37 41.43345 1.00137 7567 ft 254 kts 255°
2026-05-05 20:37 41.42661 0.97152 7422 ft 254 kts 255°
2026-05-05 20:37 41.42146 0.94903 7316 ft 254 kts 255°
2026-05-05 20:38 41.41629 0.92648 7211 ft 254 kts 255°
2026-05-05 20:38 41.41113 0.90401 7115 ft 254 kts 255°
2026-05-05 20:38 41.40594 0.88147 7016 ft 254 kts 255°
2026-05-05 20:38 41.40075 0.85896 6902 ft 254 kts 255°
2026-05-05 20:39 41.39452 0.83693 6778 ft 258 kts 241°
2026-05-05 20:39 41.38189 0.81989 6687 ft 264 kts 216°
2026-05-05 20:39 41.36510 0.81043 6593 ft 268 kts 200°
2026-05-05 20:39 41.34715 0.80352 6486 ft 269 kts 199°
2026-05-05 20:40 41.32911 0.79676 6362 ft 270 kts 199°
2026-05-05 20:40 41.31101 0.78992 6227 ft 270 kts 200°
2026-05-05 20:40 41.29308 0.78303 6119 ft 266 kts 200°
2026-05-05 20:40 41.27532 0.77613 6012 ft 265 kts 200°
2026-05-05 20:41 41.25785 0.76933 5881 ft 258 kts 200°
2026-05-05 20:41 41.24089 0.76272 5787 ft 251 kts 200°
2026-05-05 20:41 41.22425 0.75682 5647 ft 245 kts 195°
2026-05-05 20:41 41.20791 0.75292 5568 ft 239 kts 193°
2026-05-05 20:42 41.19157 0.74931 5477 ft 238 kts 193°
2026-05-05 20:42 41.17524 0.74561 5393 ft 239 kts 194°
2026-05-05 20:42 41.15850 0.74328 5308 ft 246 kts 183°
2026-05-05 20:42 41.14124 0.74427 5208 ft 250 kts 180°
2026-05-05 20:43 41.12381 0.74562 5096 ft 252 kts 180°
2026-05-05 20:43 41.10640 0.74686 4986 ft 249 kts 180°
2026-05-05 20:43 41.08960 0.74983 4863 ft 248 kts 166°
2026-05-05 20:43 41.07342 0.75753 4774 ft 247 kts 161°
2026-05-05 20:44 41.05775 0.76700 4662 ft 250 kts 146°
2026-05-05 20:44 41.04647 0.78439 4568 ft 252 kts 113°
2026-05-05 20:44 41.04325 0.80688 4441 ft 250 kts 81°
2026-05-05 20:44 41.04752 0.82883 4373 ft 245 kts 66°
2026-05-05 20:45 41.06015 0.87043 4158 ft 243 kts 65°
2026-05-05 20:45 41.06638 0.89100 4049 ft 245 kts 65°
2026-05-05 20:45 41.07267 0.91193 3816 ft 243 kts 65°
2026-05-05 20:46 41.07875 0.93243 3552 ft 236 kts 65°
2026-05-05 20:46 41.08460 0.95229 3271 ft 225 kts 65°
2026-05-05 20:46 41.09012 0.97110 3015 ft 212 kts 65°
2026-05-05 20:46 41.09530 0.98879 2776 ft 199 kts 65°
2026-05-05 20:47 41.10014 1.00534 2548 ft 187 kts 65°
2026-05-05 20:47 41.10479 1.02118 2338 ft 183 kts 65°
2026-05-05 20:47 41.10935 1.03672 2151 ft 184 kts 65°
2026-05-05 20:47 41.11398 1.05252 1931 ft 184 kts 66°
2026-05-05 20:48 41.11861 1.06834 1703 ft 181 kts 66°
2026-05-05 20:48 41.12292 1.08316 1472 ft 165 kts 66°
2026-05-05 20:48 41.12693 1.09692 1229 ft 157 kts 66°
2026-05-05 20:48 41.13079 1.11015 1027 ft 152 kts 67°
2026-05-05 20:49 41.13461 1.12329 849 ft 153 kts 67°
2026-05-05 20:49 41.13844 1.13636 656 ft 151 kts 67°
2026-05-05 20:49 41.14221 1.14919 453 ft 152 kts 67°
2026-05-05 20:49 41.14600 1.16241 262 ft 154 kts 67°
2026-05-05 20:50 41.14956 1.17445 240 ft 119 kts 70°
2026-05-05 20:50 41.15116 1.18002 243 ft 67 kts 69°
2026-05-05 20:50 41.15195 1.18262 242 ft 10 kts 54°
2026-05-05 20:50 41.15250 1.18308 241 ft 9 kts 26°
2026-05-05 20:51 41.15290 1.18331 241 ft 0 kts 14°
2026-05-05 20:51 41.15323 1.18328 241 ft 12 kts 346°
2026-05-05 20:51 41.15354 1.18219 241 ft 17 kts 251°
2026-05-05 20:51 41.15311 1.18064 241 ft 18 kts 249°
2026-05-05 20:52 41.15267 1.17914 241 ft 17 kts 248°
2026-05-05 20:52 41.15224 1.17769 241 ft 17 kts 249°
2026-05-05 20:52 41.15183 1.17629 241 ft 16 kts 249°
2026-05-05 20:52 41.15144 1.17495 241 ft 15 kts 248°
2026-05-05 20:53 41.15106 1.17366 241 ft 15 kts 248°
2026-05-05 20:53 41.15069 1.17242 241 ft 14 kts 249°
2026-05-05 20:53 41.15036 1.17125 241 ft 13 kts 249°
2026-05-05 20:53 41.15003 1.17012 241 ft 13 kts 249°
2026-05-05 20:54 41.14971 1.16903 241 ft 13 kts 249°
2026-05-05 20:54 41.14940 1.16796 241 ft 12 kts 249°
2026-05-05 20:54 41.14909 1.16691 241 ft 12 kts 249°
2026-05-05 20:54 41.14879 1.16590 241 ft 12 kts 249°
2026-05-05 20:55 41.14850 1.16491 241 ft 11 kts 249°
2026-05-05 20:55 41.14820 1.16391 241 ft 13 kts 249°
2026-05-05 20:55 41.14787 1.16275 241 ft 14 kts 249°
2026-05-05 20:55 41.14749 1.16144 241 ft 16 kts 249°
2026-05-05 20:56 41.14707 1.16001 241 ft 17 kts 249°
2026-05-05 20:56 41.14666 1.15861 241 ft 16 kts 249°
2026-05-05 20:56 41.14627 1.15726 241 ft 15 kts 247°
2026-05-05 20:56 41.14603 1.15618 241 ft 8 kts 278°
2026-05-05 20:57 41.14641 1.15573 241 ft 7 kts 336°
2026-05-05 20:57 41.14673 1.15556 241 ft 0 kts 337°